FW4143 Weather Reports


time (UTC)temp
C
wind
direction
speed
KPH
gust
KPH
rain 1hr
cm
rain 24hr
cm
rain mn
cm
humidity
%
barometer
mb
20260505054705 22 35 12.9 24.1 0.00 0.00 0.00 1 1009.5
20260505054626 22 36 12.9 24.1 0.00 0.00 0.00 1 1009.5
20260505054526 22 35 12.9 24.1 0.00 0.00 0.00 1 1009.5
20260505054405 22 35 12.9 24.1 0.00 0.00 0.00 1 1009.6
20260505054305 22 35 12.9 24.1 0.00 0.00 0.00 1 1009.5
20260505054205 22 34 12.9 24.1 0.00 0.00 0.00 1 1009.6
20260505054105 22 33 12.9 24.1 0.00 0.00 0.00 1 1009.5
20260505054004 22 33 12.9 24.1 0.00 0.00 0.00 1 1009.5
20260505053905 22 31 12.9 24.1 0.00 0.00 0.00 1 1009.5
20260505053805 22 33 12.9 25.7 0.00 0.00 0.00 1 1009.5
20260505053705 22 32 12.9 25.7 0.00 0.00 0.00 1 1009.5
20260505053605 22 33 12.9 25.7 0.00 0.00 0.00 1 1009.6
20260505053505 22 32 12.9 25.7 0.00 0.00 0.00 1 1009.6
20260505053405 22 31 12.9 25.7 0.00 0.00 0.00 1 1009.5
20260505053305 22 30 12.9 25.7 0.00 0.00 0.00 1 1009.6
20260505053205 22 30 12.9 25.7 0.00 0.00 0.00 1 1009.5
20260505053105 22 30 12.9 25.7 0.00 0.00 0.00 1 1009.5
20260505053005 22 28 12.9 25.7 0.00 0.00 0.00 1 1009.5
20260505052905 22 27 12.9 25.7 0.00 0.00 0.00 1 1009.5
20260505052805 22 24 11.3 25.7 0.00 0.00 0.00 1 1009.5
20260505052705 22 26 12.9 25.7 0.00 0.00 0.00 1 1009.5
20260505052605 22 26 12.9 25.7 0.00 0.00 0.00 1 1009.5
20260505052505 22 28 11.3 25.7 0.00 0.00 0.00 1 1009.5
20260505052405 22 28 12.9 24.1 0.00 0.00 0.00 1 1009.5
20260505052305 22 29 11.3 24.1 0.00 0.00 0.00 1 1009.5
20260505052205 22 31 11.3 24.1 0.00 0.00 0.00 1 1009.5
20260505052105 22 30 11.3 24.1 0.00 0.00 0.00 1 1009.5
20260505052005 22 33 11.3 24.1 0.00 0.00 0.00 1 1009.5
20260505051905 22 32 11.3 24.1 0.00 0.00 0.00 1 1009.6
20260505051805 22 33 11.3 22.5 0.00 0.00 0.00 1 1009.5
20260505051705 22 33 11.3 22.5 0.00 0.00 0.00 1 1009.5
20260505051605 22 33 11.3 22.5 0.00 0.00 0.00 1 1009.5
20260505051525 22 33 11.3 22.5 0.00 0.00 0.00 1 1009.5
20260505051405 22 36 9.7 22.5 0.00 0.00 0.00 1 1009.5
20260505051326 22 37 11.3 22.5 0.00 0.00 0.00 1 1009.4
20260505051205 22 37 11.3 22.5 0.00 0.00 0.00 1 1009.3
20260505051105 22 36 11.3 22.5 0.00 0.00 0.00 1 1009.3
20260505051026 22 34 11.3 22.5 0.00 0.00 0.00 1 1009.4
20260505050905 22 36 11.3 24.1 0.00 0.00 0.00 1 1009.4
20260505050805 22 37 11.3 24.1 0.00 0.00 0.00 1 1009.4
20260505050705 22 36 11.3 24.1 0.00 0.00 0.00 1 1009.4
20260505050626 22 37 11.3 24.1 0.00 0.00 0.00 1 1009.4
20260505050505 22 37 11.3 24.1 0.00 0.00 0.00 1 1009.5
20260505050405 22 36 11.3 24.1 0.00 0.00 0.00 1 1009.5
20260505050305 22 35 11.3 24.1 0.00 0.00 0.00 1 1009.6
20260505050205 22 34 11.3 24.1 0.00 0.00 0.00 1 1009.6
20260505050105 22 36 9.7 24.1 0.00 0.00 0.00 1 1009.6
20260505041705 22 24 11.3 24.1 0.00 0.00 0.00 1 1009.3
20260505041605 22 26 11.3 24.1 0.00 0.00 0.00 1 1009.4
20260505041505 22 26 9.7 22.5 0.00 0.00 0.00 1 1009.3
20260505041405 22 25 9.7 20.9 0.00 0.00 0.00 1 1009.4
20260505041305 22 24 9.7 20.9 0.00 0.00 0.00 1 1009.4
20260505041226 22 23 9.7 20.9 0.00 0.00 0.00 1 1009.4
20260505041105 22 27 9.7 20.9 0.00 0.00 0.00 1 1009.4
20260505041026 22 24 9.7 20.9 0.00 0.00 0.00 1 1009.4
20260505040905 22 24 9.7 20.9 0.00 0.00 0.00 1 1009.4
20260505040826 22 27 9.7 20.9 0.00 0.00 0.00 1 1009.4
20260505040726 22 26 9.7 20.9 0.00 0.00 0.00 1 1009.4
20260505040626 22 24 8.0 20.9 0.00 0.00 0.00 1 1009.4
20260505040505 22 26 8.0 20.9 0.00 0.00 0.00 1 1009.4
20260505040405 22 25 8.0 20.9 0.00 0.00 0.00 1 1009.4
20260505040305 22 24 8.0 20.9 0.00 0.00 0.00 1 1009.5
20260505040205 22 24 8.0 20.9 0.00 0.00 0.00 1 1009.5
20260505040105 22 19 8.0 17.7 0.00 0.00 0.00 1 1009.5
20260505040005 22 19 8.0 17.7 0.00 0.00 0.00 1 1009.5
20260505035905 22 18 8.0 17.7 0.00 0.00 0.00 1 1009.5
20260505035805 22 18 9.7 17.7 0.00 0.00 0.00 1 1009.5
20260505035705 22 17 9.7 22.5 0.00 0.00 0.00 1 1009.4
20260505035605 22 22 9.7 22.5 0.00 0.00 0.00 1 1009.5
20260505035505 22 20 9.7 22.5 0.00 0.00 0.00 1 1009.5
20260505035405 22 22 9.7 22.5 0.00 0.00 0.00 1 1009.5
20260505035305 22 24 9.7 22.5 0.00 0.00 0.00 1 1009.5
20260505035205 22 19 9.7 22.5 0.00 0.00 0.00 1 1009.4
20260505035126 22 21 9.7 22.5 0.00 0.00 0.00 1 1009.4
20260505035005 22 27 9.7 22.5 0.00 0.00 0.00 1 1009.4
20260505034926 22 26 9.7 22.5 0.00 0.00 0.00 1 1009.4
20260505034805 22 24 9.7 22.5 0.00 0.00 0.00 2 1009.5
20260505034705 22 21 8.0 22.5 0.00 0.00 0.00 3 1009.4
20260505034605 22 20 8.0 22.5 0.00 0.00 0.00 3 1009.4
20260505034505 22 19 8.0 22.5 0.00 0.00 0.00 4 1009.4
20260505034405 22 22 8.0 22.5 0.00 0.00 0.00 4 1009.4
20260505034326 22 19 8.0 22.5 0.00 0.00 0.00 4 1009.4
20260505034205 22 20 8.0 22.5 0.00 0.00 0.00 5 1009.4
20260505034126 22 20 8.0 22.5 0.00 0.00 0.00 5 1009.4
20260505034005 22 21 8.0 22.5 0.00 0.00 0.00 6 1009.4
20260505033905 22 23 8.0 22.5 0.00 0.00 0.00 7 1009.4
20260505033805 23 18 8.0 17.7 0.00 0.00 0.00 7 1009.4
20260505033705 23 22 8.0 17.7 0.00 0.00 0.00 8 1009.4
20260505033626 23 22 8.0 17.7 0.00 0.00 0.00 9 1009.4
20260505033505 23 22 8.0 17.7 0.00 0.00 0.00 9 1009.4
20260505033405 23 21 8.0 19.3 0.00 0.00 0.00 10 1009.4
20260505033326 23 22 9.7 19.3 0.00 0.00 0.00 10 1009.4
20260505033205 23 22 8.0 22.5 0.00 0.00 0.00 11 1009.4
20260505033105 23 22 9.7 22.5 0.00 0.00 0.00 11 1009.4
20260505033005 23 21 9.7 22.5 0.00 0.00 0.00 12 1009.4
20260505032905 23 20 9.7 22.5 0.00 0.00 0.00 13 1009.4
20260505032805 23 24 9.7 22.5 0.00 0.00 0.00 14 1009.4
20260505032705 23 23 9.7 22.5 0.00 0.00 0.00 14 1009.4
20260505032605 23 19 9.7 22.5 0.00 0.00 0.00 14 1009.4
20260505032526 23 21 9.7 22.5 0.00 0.00 0.00 14 1009.4
20260505032405 23 20 9.7 22.5 0.00 0.00 0.00 15 1009.4
20260505032305 23 20 8.0 22.5 0.00 0.00 0.00 16 1009.4
20260505032205 23 21 8.0 20.9 0.00 0.00 0.00 16 1009.3
20260505032105 23 19 8.0 20.9 0.00 0.00 0.00 16 1009.3
20260505032005 23 13 8.0 20.9 0.00 0.00 0.00 17 1009.3
20260505031905 23 9 8.0 16.1 0.00 0.00 0.00 17 1009.3
20260505031805 23 9 8.0 16.1 0.00 0.00 0.00 18 1009.4
20260505031705 23 11 6.4 16.1 0.00 0.00 0.00 18 1009.4
20260505031605 23 17 6.4 16.1 0.00 0.00 0.00 19 1009.4
20260505031505 23 14 6.4 16.1 0.00 0.00 0.00 19 1009.4
20260505031405 23 13 6.4 14.5 0.00 0.00 0.00 20 1009.4
20260505031305 23 13 6.4 14.5 0.00 0.00 0.00 20 1009.4
20260505031205 23 13 6.4 14.5 0.00 0.00 0.00 21 1009.4
20260505031126 23 12 6.4 14.5 0.00 0.00 0.00 21 1009.4
20260505031005 23 19 6.4 14.5 0.00 0.00 0.00 22 1009.4
20260505030905 23 25 6.4 14.5 0.00 0.00 0.00 22 1009.4
20260505030805 23 26 6.4 14.5 0.00 0.00 0.00 23 1009.4
20260505030705 23 21 8.0 14.5 0.00 0.00 0.00 23 1009.4
20260505030626 23 19 8.0 14.5 0.00 0.00 0.00 23 1009.4
20260505030505 23 18 6.4 14.5 0.00 0.00 0.00 24 1009.3
20260505030426 23 16 6.4 14.5 0.00 0.00 0.00 24 1009.3
20260505030305 23 12 6.4 14.5 0.00 0.00 0.00 24 1009.3
20260505030205 23 16 6.4 14.5 0.00 0.00 0.00 25 1009.3
20260505030105 23 18 6.4 14.5 0.00 0.00 0.00 25 1009.3
20260505030005 23 18 6.4 14.5 0.00 0.00 0.00 26 1009.4
20260505025904 23 21 6.4 14.5 0.00 0.00 0.00 26 1009.4
20260505025805 23 15 6.4 14.5 0.00 0.00 0.00 27 1009.4
20260505025705 23 11 6.4 14.5 0.00 0.00 0.00 27 1009.4
20260505025605 23 11 6.4 14.5 0.00 0.00 0.00 27 1009.3
20260505025526 23 15 6.4 14.5 0.00 0.00 0.00 28 1009.3
20260505025405 23 18 6.4 19.3 0.00 0.00 0.00 28 1009.3
20260505025305 23 22 6.4 19.3 0.00 0.00 0.00 29 1009.3
20260505025205 23 20 6.4 19.3 0.00 0.00 0.00 29 1009.3
20260505025105 23 19 6.4 19.3 0.00 0.00 0.00 29 1009.3
20260505025005 23 17 6.4 19.3 0.00 0.00 0.00 29 1009.3
20260505024905 23 13 6.4 19.3 0.00 0.00 0.00 30 1009.3
20260505024805 23 18 6.4 19.3 0.00 0.00 0.00 30 1009.3
20260505024705 23 25 4.8 19.3 0.00 0.00 0.00 31 1009.3
20260505024605 23 25 4.8 19.3 0.00 0.00 0.00 31 1009.3
20260505024505 23 26 4.8 14.5 0.00 0.00 0.00 32 1009.3
20260505024426 23 22 4.8 14.5 0.00 0.00 0.00 32 1009.3
20260505024326 23 18 4.8 14.5 0.00 0.00 0.00 32 1009.3
20260505024205 23 11 4.8 14.5 0.00 0.00 0.00 33 1009.3
20260505024105 23 11 4.8 14.5 0.00 0.00 0.00 34 1009.3
20260505024026 23 13 4.8 14.5 0.00 0.00 0.00 34 1009.3
20260505023905 23 15 4.8 14.5 0.00 0.00 0.00 34 1009.3
20260505023805 23 15 6.4 14.5 0.00 0.00 0.00 35 1009.3
20260505023705 23 15 6.4 14.5 0.00 0.00 0.00 35 1009.2
20260505023605 23 15 6.4 14.5 0.00 0.00 0.00 36 1009.2
20260505023505 23 14 6.4 14.5 0.00 0.00 0.00 37 1009.2
20260505023405 23 17 6.4 14.5 0.00 0.00 0.00 37 1009.2
20260505023305 23 23 6.4 14.5 0.00 0.00 0.00 37 1009.2
20260505023205 23 29 6.4 14.5 0.00 0.00 0.00 38 1009.2
20260505023105 23 32 6.4 14.5 0.00 0.00 0.00 38 1009.1
20260505023004 23 31 6.4 14.5 0.00 0.00 0.00 39 1009.1
20260505022926 23 30 6.4 16.1 0.00 0.00 0.00 39 1009.1
20260505022805 23 29 6.4 16.1 0.00 0.00 0.00 39 1009.1
20260505022726 23 29 6.4 16.1 0.00 0.00 0.00 39 1009.1
20260505022626 23 29 6.4 16.1 0.00 0.00 0.00 40 1009.2
20260505022505 23 27 6.4 16.1 0.00 0.00 0.00 40 1009.2
20260505022405 23 26 6.4 16.1 0.00 0.00 0.00 41 1009.2
20260505022305 23 22 8.0 16.1 0.00 0.00 0.00 41 1009.2
20260505022205 23 20 8.0 16.1 0.00 0.00 0.00 41 1009.1
20260505022105 23 14 8.0 16.1 0.00 0.00 0.00 42 1009.1
20260505022005 23 11 8.0 16.1 0.00 0.00 0.00 42 1009.2
20260505021926 23 11 8.0 14.5 0.00 0.00 0.00 43 1009.2
20260505021805 23 14 6.4 14.5 0.00 0.00 0.00 44 1009.1
20260505021726 23 15 6.4 14.5 0.00 0.00 0.00 44 1009.1
20260505021605 23 14 6.4 14.5 0.00 0.00 0.00 45 1009.0
20260505021505 23 15 6.4 14.5 0.00 0.00 0.00 45 1009.0
20260505021405 24 17 6.4 14.5 0.00 0.00 0.00 45 1009.0
20260505021305 24 18 6.4 16.1 0.00 0.00 0.00 46 1009.0
20260505021205 24 20 6.4 16.1 0.00 0.00 0.00 47 1009.1
20260505021105 24 22 6.4 16.1 0.00 0.00 0.00 47 1009.1
20260505021005 24 24 6.4 16.1 0.00 0.00 0.00 48 1009.1
20260505020905 24 21 6.4 16.1 0.00 0.00 0.00 48 1009.1
20260505020805 24 19 8.0 16.1 0.00 0.00 0.00 48 1009.1
20260505020705 24 13 6.4 16.1 0.00 0.00 0.00 49 1009.2
20260505020605 24 11 6.4 16.1 0.00 0.00 0.00 50 1009.1
20260505020505 24 6 6.4 16.1 0.00 0.00 0.00 50 1009.1
20260505020405 24 6 6.4 16.1 0.00 0.00 0.00 50 1009.1
20260505020326 24 8 6.4 16.1 0.00 0.00 0.00 51 1009.1
20260505020205 24 360 6.4 16.1 0.00 0.00 0.00 51 1009.1
20260505020126 24 360 6.4 16.1 0.00 0.00 0.00 51 1009.1
20260505020005 24 354 4.8 16.1 0.00 0.00 0.00 52 1009.1
20260505015905 24 346 4.8 16.1 0.00 0.00 0.00 52 1009.1
20260505015805 24 338 4.8 16.1 0.00 0.00 0.00 53 1009.0
20260505015705 24 337 4.8 11.3 0.00 0.00 0.00 53 1009.1
20260505015605 24 336 4.8 11.3 0.00 0.00 0.00 53 1009.1
20260505015526 24 337 4.8 11.3 0.00 0.00 0.00 54 1009.1
20260505015405 24 341 4.8 11.3 0.00 0.00 0.00 54 1009.1
20260505015326 24 341 4.8 11.3 0.00 0.00 0.00 54 1009.0
20260505015226 24 342 4.8 11.3 0.00 0.00 0.00 55 1009.0
20260505015105 24 341 4.8 11.3 0.00 0.00 0.00 55 1009.1
20260505015005 24 341 4.8 11.3 0.00 0.00 0.00 55 1009.0
20260505014905 24 349 6.4 11.3 0.00 0.00 0.00 55 1009.0
20260505014805 24 358 6.4 11.3 0.00 0.00 0.00 55 1009.0
20260505014726 24 5 6.4 11.3 0.00 0.00 0.00 56 1009.0
20260505014605 24 12 6.4 11.3 0.00 0.00 0.00 56 1009.0
20260505014505 24 14 6.4 11.3 0.00 0.00 0.00 56 1009.0
20260505014405 24 8 4.8 11.3 0.00 0.00 0.00 56 1009.0
20260505014305 24 359 4.8 11.3 0.00 0.00 0.00 56 1009.0
20260505014226 24 356 4.8 11.3 0.00 0.00 0.00 56 1009.1
20260505014126 24 357 4.8 11.3 0.00 0.00 0.00 57 1009.1
20260505014026 24 4 4.8 11.3 0.00 0.00 0.00 57 1009.0
20260505013905 25 12 4.8 14.5 0.00 0.00 0.00 57 1009.1
20260505013805 25 11 4.8 14.5 0.00 0.00 0.00 57 1009.0
20260505013705 25 5 4.8 14.5 0.00 0.00 0.00 57 1009.0
20260505013605 25 1 4.8 14.5 0.00 0.00 0.00 57 1009.1
20260505013505 25 2 4.8 14.5 0.00 0.00 0.00 58 1009.0
20260505013405 25 9 6.4 14.5 0.00 0.00 0.00 58 1009.0
20260505013326 25 15 6.4 14.5 0.00 0.00 0.00 58 1009.0
20260505013205 25 23 6.4 14.5 0.00 0.00 0.00 58 1009.0
20260505013105 25 23 6.4 14.5 0.00 0.00 0.00 58 1009.0
20260505013004 25 21 6.4 14.5 0.00 0.00 0.00 58 1008.9
20260505012905 25 24 6.4 14.5 0.00 0.00 0.00 58 1009.0
20260505012826 25 23 6.4 14.5 0.00 0.00 0.00 58 1008.9
20260505012705 25 23 6.4 16.1 0.00 0.00 0.00 58 1009.0
20260505012626 25 24 8.0 16.1 0.00 0.00 0.00 58 1009.0
20260505012505 25 24 6.4 16.1 0.00 0.00 0.00 59 1009.0
20260505012426 25 24 8.0 16.1 0.00 0.00 0.00 59 1009.0
20260505012305 25 24 8.0 16.1 0.00 0.00 0.00 59 1009.0
20260505012205 25 21 6.4 16.1 0.00 0.00 0.00 59 1008.9
20260505012105 25 20 6.4 16.1 0.00 0.00 0.00 59 1008.9
20260505012005 25 20 8.0 16.1 0.00 0.00 0.00 59 1008.8
20260505011905 25 16 6.4 16.1 0.00 0.00 0.00 59 1008.9
20260505011805 25 17 6.4 16.1 0.00 0.00 0.00 59 1008.8
20260505011705 25 21 8.0 14.5 0.00 0.00 0.00 59 1008.9
20260505011605 25 20 8.0 14.5 0.00 0.00 0.00 59 1008.8
20260505011505 25 22 8.0 14.5 0.00 0.00 0.00 60 1008.8
20260505011405 25 23 8.0 14.5 0.00 0.00 0.00 60 1008.8
20260505011305 25 20 8.0 14.5 0.00 0.00 0.00 60 1008.8
20260505011204 25 22 8.0 14.5 0.00 0.00 0.00 60 1008.8
20260505011105 25 24 8.0 14.5 0.00 0.00 0.00 60 1008.8
20260505011026 25 24 8.0 14.5 0.00 0.00 0.00 60 1008.8
20260505010926 25 27 8.0 14.5 0.00 0.00 0.00 60 1008.8
20260505010805 25 28 8.0 14.5 0.00 0.00 0.00 60 1008.8
20260505010726 25 28 8.0 14.5 0.00 0.00 0.00 60 1008.8
20260505010626 25 30 8.0 14.5 0.00 0.00 0.00 60 1008.8
20260505010505 25 30 8.0 16.1 0.00 0.00 0.00 60 1008.8
20260505010405 25 30 8.0 16.1 0.00 0.00 0.00 60 1008.8
20260505010305 25 33 8.0 17.7 0.00 0.00 0.00 60 1008.8
20260505010226 25 34 8.0 17.7 0.00 0.00 0.00 60 1008.7
20260505010105 25 34 8.0 17.7 0.00 0.00 0.00 60 1008.8
20260505010005 25 35 8.0 17.7 0.00 0.00 0.00 60 1008.7
20260505005905 25 35 8.0 17.7 0.00 0.00 0.00 61 1008.8
20260505005826 25 34 8.0 17.7 0.00 0.00 0.00 61 1008.8
20260505005705 25 31 8.0 17.7 0.00 0.00 0.00 61 1008.8
20260505005605 25 31 8.0 17.7 0.00 0.00 0.00 61 1008.8
20260505005504 25 34 8.0 17.7 0.00 0.00 0.00 61 1008.8
20260505005405 25 33 8.0 17.7 0.00 0.00 0.00 61 1008.8
20260505005305 25 35 8.0 17.7 0.00 0.00 0.00 61 1008.8
20260505005205 26 34 8.0 20.9 0.00 0.00 0.00 61 1008.9
20260505005105 26 35 8.0 20.9 0.00 0.00 0.00 61 1008.8
20260505005005 26 35 9.7 20.9 0.00 0.00 0.00 61 1008.8
20260505004905 26 33 9.7 20.9 0.00 0.00 0.00 61 1008.8
20260505004805 26 35 9.7 20.9 0.00 0.00 0.00 61 1008.8
20260505004705 26 38 9.7 20.9 0.00 0.00 0.00 60 1008.8
20260505004605 26 37 9.7 20.9 0.00 0.00 0.00 60 1008.7
20260505004526 26 39 9.7 20.9 0.00 0.00 0.00 60 1008.7
20260505004405 26 37 9.7 20.9 0.00 0.00 0.00 60 1008.7
20260505004305 26 37 9.7 20.9 0.00 0.00 0.00 60 1008.7
20260505004205 26 37 9.7 20.9 0.00 0.00 0.00 60 1008.7
20260505004105 26 35 9.7 19.3 0.00 0.00 0.00 60 1008.7
20260505004005 26 34 9.7 19.3 0.00 0.00 0.00 60 1008.7
20260505003905 26 33 9.7 19.3 0.00 0.00 0.00 60 1008.7
20260505003805 26 34 9.7 19.3 0.00 0.00 0.00 60 1008.7
20260505003705 26 32 9.7 19.3 0.00 0.00 0.00 60 1008.7
20260505003626 26 30 9.7 19.3 0.00 0.00 0.00 60 1008.7
20260505003505 26 27 9.7 19.3 0.00 0.00 0.00 60 1008.6
20260505003426 26 27 9.7 19.3 0.00 0.00 0.00 60 1008.6
20260505003305 26 22 9.7 22.5 0.00 0.00 0.00 60 1008.6
20260505003205 26 23 9.7 25.7 0.00 0.00 0.00 60 1008.6
20260505003105 26 24 9.7 25.7 0.00 0.00 0.00 60 1008.6
20260505003005 26 23 9.7 25.7 0.00 0.00 0.00 60 1008.6
20260505002905 26 23 9.7 25.7 0.00 0.00 0.00 60 1008.6
20260505002805 26 24 9.7 25.7 0.00 0.00 0.00 60 1008.6
20260505002726 26 23 11.3 25.7 0.00 0.00 0.00 59 1008.6
20260505002605 26 25 11.3 25.7 0.00 0.00 0.00 59 1008.6
20260505002526 26 25 11.3 25.7 0.00 0.00 0.00 59 1008.6
20260505002405 26 27 11.3 25.7 0.00 0.00 0.00 59 1008.6
20260505002305 26 26 11.3 25.7 0.00 0.00 0.00 59 1008.6
20260505002205 26 25 11.3 25.7 0.00 0.00 0.00 59 1008.5
20260505002126 26 25 11.3 25.7 0.00 0.00 0.00 59 1008.5
20260505002005 26 25 11.3 25.7 0.00 0.00 0.00 59 1008.5
20260505001905 26 26 11.3 25.7 0.00 0.00 0.00 59 1008.5
20260505001826 26 25 11.3 25.7 0.00 0.00 0.00 59 1008.5
20260505001705 26 25 11.3 25.7 0.00 0.00 0.00 59 1008.5
20260505001605 26 23 11.3 25.7 0.00 0.00 0.00 59 1008.5
20260505001505 26 22 11.3 25.7 0.00 0.00 0.00 59 1008.6
20260505001405 26 23 11.3 22.5 0.00 0.00 0.00 59 1008.5
20260505001305 26 27 11.3 22.5 0.00 0.00 0.00 59 1008.5
20260505001205 26 29 11.3 22.5 0.00 0.00 0.00 59 1008.6
20260505001105 26 30 11.3 22.5 0.00 0.00 0.00 59 1008.6
20260505001005 26 30 11.3 22.5 0.00 0.00 0.00 59 1008.6
20260505000905 26 32 11.3 24.1 0.00 0.00 0.00 59 1008.7
20260505000805 26 34 11.3 24.1 0.00 0.00 0.00 59 1008.7
20260505000726 26 34 12.9 24.1 0.00 0.00 0.00 59 1008.7
20260505000605 26 36 12.9 25.7 0.00 0.00 0.00 59 1008.7
20260505000505 26 36 12.9 30.6 0.00 0.00 0.00 59 1008.7
20260505000406 26 36 12.9 30.6 0.00 0.00 0.00 59 1008.8
20260505000305 26 35 14.5 30.6 0.00 0.00 0.00 59 1008.8
20260505000204 26 33 14.5 30.6 0.00 0.00 0.00 59 1008.8
20260505000105 26 33 14.5 30.6 0.00 0.00 0.00 59 1008.8
20260505000005 26 33 14.5 30.6 0.00 0.00 0.00 59 1008.9
20260504235905 26 34 14.5 30.6 0.00 0.00 0.00 59 1008.9
20260504235805 26 34 14.5 30.6 0.00 0.00 0.00 59 1008.8
20260504235726 26 34 14.5 30.6 0.00 0.00 0.00 59 1008.8
20260504235626 26 33 14.5 30.6 0.00 0.00 0.00 59 1008.8
20260504235505 26 31 14.5 27.4 0.00 0.00 0.00 58 1008.8
20260504235404 26 31 12.9 24.1 0.00 0.00 0.00 58 1008.8
20260504235305 27 30 12.9 24.1 0.00 0.00 0.00 58 1008.8
20260504235205 27 34 12.9 24.1 0.00 0.00 0.00 59 1008.9
20260504235105 27 36 12.9 24.1 0.00 0.00 0.00 59 1008.9
20260504235005 27 35 12.9 24.1 0.00 0.00 0.00 59 1009.0
20260504234905 27 33 12.9 24.1 0.00 0.00 0.00 58 1009.0
20260504234805 27 33 12.9 24.1 0.00 0.00 0.00 58 1009.1
20260504234705 27 34 12.9 24.1 0.00 0.00 0.00 58 1009.1
20260504234605 27 35 12.9 24.1 0.00 0.00 0.00 58 1009.1
20260504234505 27 36 12.9 24.1 0.00 0.00 0.00 58 1009.1
20260504234405 27 37 12.9 24.1 0.00 0.00 0.00 58 1009.1
20260504234305 27 37 12.9 29.0 0.00 0.00 0.00 58 1009.1
20260504234205 27 36 14.5 29.0 0.00 0.00 0.00 58 1009.1
20260504234104 27 35 14.5 29.0 0.00 0.00 0.00 58 1009.2
20260504234005 27 36 14.5 29.0 0.00 0.00 0.00 58 1009.2
20260504233905 27 38 14.5 29.0 0.00 0.00 0.00 58 1009.1
20260504233805 27 37 14.5 29.0 0.00 0.00 0.00 58 1009.2
20260504233705 27 34 16.1 29.0 0.00 0.00 0.00 58 1009.1
20260504233605 27 34 16.1 29.0 0.00 0.00 0.00 58 1009.1
20260504233505 27 35 16.1 29.0 0.00 0.00 0.00 58 1009.1
20260504233405 27 34 16.1 29.0 0.00 0.00 0.00 58 1009.2
20260504233305 27 33 16.1 29.0 0.00 0.00 0.00 58 1009.2
20260504233226 27 32 16.1 29.0 0.00 0.00 0.00 57 1009.2
20260504233105 27 32 14.5 29.0 0.00 0.00 0.00 58 1009.2
20260504233026 27 32 14.5 29.0 0.00 0.00 0.00 58 1009.2
20260504232905 27 32 14.5 29.0 0.00 0.00 0.00 57 1009.2
20260504232805 27 34 14.5 29.0 0.00 0.00 0.00 57 1009.2
20260504232705 27 36 14.5 29.0 0.00 0.00 0.00 57 1009.2
20260504232605 27 35 14.5 29.0 0.00 0.00 0.00 57 1009.3
20260504232505 27 36 12.9 29.0 0.00 0.00 0.00 57 1009.3
20260504232426 27 38 12.9 29.0 0.00 0.00 0.00 57 1009.3
20260504232305 27 38 12.9 24.1 0.00 0.00 0.00 57 1009.3
20260504232226 27 39 12.9 27.4 0.00 0.00 0.00 57 1009.3
20260504232105 27 39 12.9 27.4 0.00 0.00 0.00 57 1009.3
20260504232005 27 37 14.5 27.4 0.00 0.00 0.00 58 1009.3
20260504231926 27 36 14.5 27.4 0.00 0.00 0.00 58 1009.4
20260504231826 27 35 12.9 27.4 0.00 0.00 0.00 58 1009.3
20260504231705 27 32 12.9 27.4 0.00 0.00 0.00 58 1009.3
20260504231605 27 30 14.5 27.4 0.00 0.00 0.00 57 1009.3
20260504231504 27 28 12.9 27.4 0.00 0.00 0.00 57 1009.2
20260504231405 27 27 14.5 27.4 0.00 0.00 0.00 57 1009.2
20260504231305 27 29 14.5 27.4 0.00 0.00 0.00 57 1009.2
20260504231226 27 32 14.5 25.7 0.00 0.00 0.00 57 1009.3
20260504231105 27 32 16.1 29.0 0.00 0.00 0.00 57 1009.2
20260504231004 27 31 16.1 29.0 0.00 0.00 0.00 57 1009.2
20260504230905 27 33 16.1 30.6 0.00 0.00 0.00 57 1009.3
20260504230805 27 33 16.1 30.6 0.00 0.00 0.00 57 1009.3
20260504230705 27 33 16.1 30.6 0.00 0.00 0.00 57 1009.3
20260504230605 27 35 14.5 30.6 0.00 0.00 0.00 57 1009.3
20260504230505 27 35 14.5 30.6 0.00 0.00 0.00 57 1009.3
20260504230405 27 36 14.5 30.6 0.00 0.00 0.00 57 1009.4
20260504230305 27 36 12.9 30.6 0.00 0.00 0.00 57 1009.3
20260504230226 27 33 11.3 30.6 0.00 0.00 0.00 57 1009.4
20260504230105 27 33 11.3 30.6 0.00 0.00 0.00 57 1009.5
20260504230005 27 33 11.3 30.6 0.00 0.00 0.00 57 1009.5
20260504225905 27 31 12.9 30.6 0.00 0.00 0.00 57 1009.5
20260504225805 27 29 12.9 30.6 0.00 0.00 0.00 58 1009.4
20260504225705 27 29 12.9 30.6 0.00 0.00 0.00 58 1009.5
20260504225604 27 26 12.9 30.6 0.00 0.00 0.00 58 1009.5
20260504225504 27 26 12.9 30.6 0.00 0.00 0.00 57 1009.5
20260504225405 27 25 12.9 30.6 0.00 0.00 0.00 57 1009.5
20260504225305 27 23 12.9 30.6 0.00 0.00 0.00 57 1009.6
20260504225226 27 23 12.9 30.6 0.00 0.00 0.00 57 1009.5
20260504225105 27 23 12.9 30.6 0.00 0.00 0.00 57 1009.6
20260504225004 27 24 12.9 30.6 0.00 0.00 0.00 57 1009.6
20260504224905 27 23 11.3 27.4 0.00 0.00 0.00 57 1009.6
20260504224805 27 24 11.3 27.4 0.00 0.00 0.00 56 1009.6
20260504224726 27 26 11.3 22.5 0.00 0.00 0.00 57 1009.7
20260504224605 27 29 11.3 22.5 0.00 0.00 0.00 57 1009.6
20260504224526 27 30 11.3 22.5 0.00 0.00 0.00 56 1009.7
20260504224405 27 29 12.9 22.5 0.00 0.00 0.00 56 1009.6
20260504224305 28 28 12.9 22.5 0.00 0.00 0.00 56 1009.6
20260504224205 28 25 12.9 22.5 0.00 0.00 0.00 56 1009.6
20260504224105 28 24 12.9 24.1 0.00 0.00 0.00 56 1009.6
20260504224005 28 24 12.9 24.1 0.00 0.00 0.00 56 1009.6
20260504223905 28 24 12.9 24.1 0.00 0.00 0.00 56 1009.7
20260504223805 27 25 12.9 24.1 0.00 0.00 0.00 56 1009.6
20260504223704 27 27 12.9 24.1 0.00 0.00 0.00 57 1009.6
20260504223605 27 26 14.5 24.1 0.00 0.00 0.00 57 1009.5
20260504223505 27 26 14.5 27.4 0.00 0.00 0.00 56 1009.5
20260504223405 27 26 14.5 27.4 0.00 0.00 0.00 57 1009.5
20260504223305 27 25 14.5 27.4 0.00 0.00 0.00 57 1009.5
20260504223205 27 27 14.5 27.4 0.00 0.00 0.00 57 1009.6
20260504223105 27 28 14.5 27.4 0.00 0.00 0.00 57 1009.5
20260504223005 27 27 14.5 27.4 0.00 0.00 0.00 57 1009.6
20260504222905 27 27 16.1 27.4 0.00 0.00 0.00 57 1009.6
20260504222805 27 27 14.5 27.4 0.00 0.00 0.00 57 1009.6
20260504222705 27 25 14.5 27.4 0.00 0.00 0.00 57 1009.7
20260504222605 27 25 14.5 29.0 0.00 0.00 0.00 57 1009.7
20260504222504 27 26 14.5 29.0 0.00 0.00 0.00 57 1009.7
20260504222405 27 26 14.5 29.0 0.00 0.00 0.00 56 1009.7
20260504222305 27 29 14.5 29.0 0.00 0.00 0.00 56 1009.7
20260504222226 28 30 14.5 29.0 0.00 0.00 0.00 56 1009.7
20260504222105 28 25 14.5 29.0 0.00 0.00 0.00 56 1009.7
20260504222005 28 24 14.5 29.0 0.00 0.00 0.00 56 1009.8
20260504221904 28 23 14.5 29.0 0.00 0.00 0.00 56 1009.8
20260504221805 28 23 14.5 29.0 0.00 0.00 0.00 56 1009.7
20260504221705 28 26 14.5 29.0 0.00 0.00 0.00 56 1009.7
20260504221605 28 25 12.9 27.4 0.00 0.00 0.00 56 1009.6
20260504221505 28 22 12.9 27.4 0.00 0.00 0.00 56 1009.7
20260504221405 28 20 14.5 33.8 0.00 0.00 0.00 56 1009.7
20260504221305 28 21 14.5 33.8 0.00 0.00 0.00 56 1009.7
20260504221205 28 21 14.5 33.8 0.00 0.00 0.00 55 1009.8
20260504221105 28 26 14.5 33.8 0.00 0.00 0.00 56 1009.8
20260504221004 28 27 14.5 33.8 0.00 0.00 0.00 56 1009.7
20260504220905 28 27 16.1 33.8 0.00 0.00 0.00 56 1009.7
20260504220805 27 27 16.1 33.8 0.00 0.00 0.00 56 1009.7
20260504220705 27 28 16.1 33.8 0.00 0.00 0.00 56 1009.8
20260504220605 27 26 16.1 33.8 0.00 0.00 0.00 56 1009.8
20260504220505 27 29 16.1 33.8 0.00 0.00 0.00 56 1009.8
20260504220404 27 29 14.5 32.2 0.00 0.00 0.00 56 1009.9
20260504220326 28 28 14.5 29.0 0.00 0.00 0.00 56 1009.8
20260504220205 28 27 12.9 29.0 0.00 0.00 0.00 55 1009.8
20260504220105 28 24 12.9 29.0 0.00 0.00 0.00 55 1009.9
20260504220005 28 24 11.3 29.0 0.00 0.00 0.00 56 1009.9
20260504215905 28 27 11.3 29.0 0.00 0.00 0.00 55 1009.9
20260504215805 28 27 11.3 29.0 0.00 0.00 0.00 55 1009.9
20260504215705 28 25 11.3 27.4 0.00 0.00 0.00 55 1009.8
20260504215604 28 27 11.3 27.4 0.00 0.00 0.00 56 1009.7
20260504215505 28 22 11.3 27.4 0.00 0.00 0.00 56 1009.7
20260504215404 28 18 11.3 27.4 0.00 0.00 0.00 56 1009.7
20260504215305 28 17 11.3 27.4 0.00 0.00 0.00 56 1009.7
20260504215226 28 18 12.9 27.4 0.00 0.00 0.00 56 1009.7
20260504215105 28 15 12.9 29.0 0.00 0.00 0.00 56 1009.7
20260504215005 28 12 12.9 29.0 0.00 0.00 0.00 56 1009.8
20260504214905 28 7 14.5 29.0 0.00 0.00 0.00 55 1009.8
20260504214805 28 1 12.9 29.0 0.00 0.00 0.00 55 1009.7
20260504214705 28 2 12.9 29.0 0.00 0.00 0.00 55 1009.9
20260504214604 28 3 12.9 29.0 0.00 0.00 0.00 56 1009.8
20260504214526 28 7 12.9 29.0 0.00 0.00 0.00 56 1009.7
20260504214405 27 18 12.9 29.0 0.00 0.00 0.00 56 1009.7
20260504214326 27 19 14.5 29.0 0.00 0.00 0.00 55 1009.8
20260504214204 27 23 14.5 30.6 0.00 0.00 0.00 56 1009.8
20260504214105 27 27 12.9 30.6 0.00 0.00 0.00 55 1009.9
20260504214004 27 33 12.9 30.6 0.00 0.00 0.00 56 1009.9
20260504213905 27 37 12.9 30.6 0.00 0.00 0.00 56 1010.0
20260504213805 27 42 12.9 30.6 0.00 0.00 0.00 56 1009.9
20260504213705 27 42 12.9 30.6 0.00 0.00 0.00 56 1010.0
20260504213605 27 42 12.9 30.6 0.00 0.00 0.00 56 1010.1
20260504213505 27 43 12.9 30.6 0.00 0.00 0.00 56 1010.0
20260504213426 27 44 11.3 30.6 0.00 0.00 0.00 56 1010.1
20260504213305 28 43 11.3 30.6 0.00 0.00 0.00 56 1010.1
20260504213205 28 43 11.3 22.5 0.00 0.00 0.00 56 1010.1
20260504213105 27 40 11.3 22.5 0.00 0.00 0.00 56 1010.2
20260504213005 27 39 11.3 24.1 0.00 0.00 0.00 56 1010.2
20260504212925 27 40 11.3 24.1 0.00 0.00 0.00 56 1010.3
20260504212804 28 39 11.3 25.7 0.00 0.00 0.00 56 1010.3
20260504212705 28 37 11.3 25.7 0.00 0.00 0.00 56 1010.3
20260504212626 28 38 11.3 25.7 0.00 0.00 0.00 55 1010.4
20260504212504 28 38 12.9 25.7 0.00 0.00 0.00 56 1010.4
20260504212405 28 40 12.9 25.7 0.00 0.00 0.00 56 1010.4
20260504212304 28 41 12.9 25.7 0.00 0.00 0.00 56 1010.4
20260504212226 28 41 12.9 25.7 0.00 0.00 0.00 55 1010.4
20260504212105 28 40 12.9 25.7 0.00 0.00 0.00 55 1010.3
20260504212004 28 39 12.9 25.7 0.00 0.00 0.00 56 1010.3
20260504211905 28 36 12.9 25.7 0.00 0.00 0.00 56 1010.3
20260504211805 27 37 12.9 24.1 0.00 0.00 0.00 56 1010.3
20260504211705 27 38 11.3 24.1 0.00 0.00 0.00 56 1010.3
20260504211605 27 40 11.3 24.1 0.00 0.00 0.00 55 1010.4
20260504211504 27 40 11.3 24.1 0.00 0.00 0.00 55 1010.4
20260504211405 28 38 11.3 24.1 0.00 0.00 0.00 55 1010.5
20260504211305 27 37 11.3 25.7 0.00 0.00 0.00 55 1010.5
20260504211205 27 36 11.3 25.7 0.00 0.00 0.00 56 1010.5
20260504211105 27 37 12.9 25.7 0.00 0.00 0.00 56 1010.6
20260504211005 27 38 12.9 25.7 0.00 0.00 0.00 56 1010.5
20260504210904 27 37 12.9 25.7 0.00 0.00 0.00 57 1010.6
20260504210826 27 38 12.9 25.7 0.00 0.00 0.00 57 1010.6
20260504210726 27 39 14.5 29.0 0.00 0.00 0.00 57 1010.6
20260504210605 27 37 14.5 29.0 0.00 0.00 0.00 57 1010.6
20260504210504 27 37 14.5 29.0 0.00 0.00 0.00 56 1010.6
20260504210405 27 38 14.5 29.0 0.00 0.00 0.00 56 1010.7
20260504210305 27 37 14.5 29.0 0.00 0.00 0.00 57 1010.7
20260504210205 27 36 14.5 29.0 0.00 0.00 0.00 57 1010.8
20260504210126 27 37 14.5 29.0 0.00 0.00 0.00 57 1010.7
20260504210005 27 36 12.9 29.0 0.00 0.00 0.00 57 1010.7
20260504205905 27 37 12.9 29.0 0.00 0.00 0.00 57 1010.7
20260504205805 27 34 12.9 29.0 0.00 0.00 0.00 57 1010.7
20260504205705 27 33 12.9 24.1 0.00 0.00 0.00 57 1010.7
20260504205605 27 33 12.9 22.5 0.00 0.00 0.00 57 1010.8
20260504205504 27 31 12.9 20.9 0.00 0.00 0.00 57 1010.8
20260504205405 27 30 11.3 20.9 0.00 0.00 0.00 56 1010.8
20260504205305 27 31 11.3 20.9 0.00 0.00 0.00 57 1010.8
20260504205205 27 30 12.9 27.4 0.00 0.00 0.00 57 1010.8
20260504205105 27 29 12.9 27.4 0.00 0.00 0.00 56 1010.8
20260504205005 27 29 12.9 27.4 0.00 0.00 0.00 57 1010.8
20260504204905 27 27 14.5 27.4 0.00 0.00 0.00 56 1010.9
20260504204805 27 30 14.5 27.4 0.00 0.00 0.00 57 1010.8
20260504204705 27 26 14.5 27.4 0.00 0.00 0.00 56 1010.8
20260504204626 27 27 14.5 27.4 0.00 0.00 0.00 56 1010.8
20260504204505 27 25 16.1 30.6 0.00 0.00 0.00 56 1010.9
20260504204405 27 24 14.5 30.6 0.00 0.00 0.00 56 1010.8
20260504204305 27 23 14.5 30.6 0.00 0.00 0.00 56 1010.9
20260504204205 27 25 14.5 30.6 0.00 0.00 0.00 56 1010.8
20260504204105 27 24 12.9 30.6 0.00 0.00 0.00 56 1010.9
20260504204004 27 22 12.9 30.6 0.00 0.00 0.00 56 1010.9
20260504203926 27 21 12.9 30.6 0.00 0.00 0.00 56 1010.9
20260504203804 27 18 11.3 30.6 0.00 0.00 0.00 56 1010.9
20260504203726 27 20 11.3 30.6 0.00 0.00 0.00 56 1011.0
20260504203625 27 24 11.3 30.6 0.00 0.00 0.00 56 1011.0
20260504203504 27 27 11.3 29.0 0.00 0.00 0.00 56 1011.0
20260504203405 27 26 12.9 29.0 0.00 0.00 0.00 56 1011.0
20260504203305 27 28 12.9 29.0 0.00 0.00 0.00 56 1011.1
20260504203204 27 27 12.9 29.0 0.00 0.00 0.00 56 1011.1
20260504203126 27 29 14.5 29.0 0.00 0.00 0.00 56 1011.1
20260504203026 27 30 14.5 29.0 0.00 0.00 0.00 56 1011.2
20260504202905 27 33 14.5 29.0 0.00 0.00 0.00 56 1011.2
20260504202805 27 34 14.5 29.0 0.00 0.00 0.00 56 1011.2
20260504202704 27 33 12.9 29.0 0.00 0.00 0.00 55 1011.2
20260504202604 27 32 12.9 27.4 0.00 0.00 0.00 55 1011.3
20260504202505 27 31 12.9 27.4 0.00 0.00 0.00 55 1011.2
20260504202405 27 31 12.9 27.4 0.00 0.00 0.00 55 1011.3
20260504202305 27 30 12.9 27.4 0.00 0.00 0.00 55 1011.3
20260504202205 27 30 12.9 30.6 0.00 0.00 0.00 55 1011.3
20260504202105 27 27 12.9 30.6 0.00 0.00 0.00 55 1011.4
20260504202004 27 25 12.9 30.6 0.00 0.00 0.00 55 1011.4
20260504201905 27 24 12.9 30.6 0.00 0.00 0.00 55 1011.4
20260504201805 27 25 14.5 30.6 0.00 0.00 0.00 56 1011.5
20260504201705 27 23 14.5 30.6 0.00 0.00 0.00 55 1011.4
20260504201605 27 24 14.5 30.6 0.00 0.00 0.00 55 1011.5
20260504201504 27 26 14.5 30.6 0.00 0.00 0.00 55 1011.5
20260504201426 27 25 14.5 30.6 0.00 0.00 0.00 55 1011.5
20260504201305 27 27 14.5 30.6 0.00 0.00 0.00 55 1011.5
20260504201205 27 31 14.5 29.0 0.00 0.00 0.00 54 1011.6
20260504201105 27 34 14.5 29.0 0.00 0.00 0.00 54 1011.6
20260504201005 27 39 16.1 29.0 0.00 0.00 0.00 55 1011.5
20260504200905 27 42 16.1 29.0 0.00 0.00 0.00 55 1011.5
20260504200826 27 42 14.5 27.4 0.00 0.00 0.00 55 1011.5
20260504200726 27 42 16.1 27.4 0.00 0.00 0.00 55 1011.5
20260504200605 27 39 16.1 27.4 0.00 0.00 0.00 55 1011.5
20260504200505 27 38 16.1 29.0 0.00 0.00 0.00 55 1011.5
20260504200405 27 39 14.5 29.0 0.00 0.00 0.00 55 1011.5
20260504200305 27 40 14.5 29.0 0.00 0.00 0.00 55 1011.6
20260504200205 27 36 14.5 29.0 0.00 0.00 0.00 55 1011.6
20260504200105 27 36 14.5 29.0 0.00 0.00 0.00 55 1011.7
20260504200005 27 31 14.5 29.0 0.00 0.00 0.00 55 1011.8
20260504195904 27 28 14.5 29.0 0.00 0.00 0.00 55 1011.8
20260504195804 27 29 12.9 29.0 0.00 0.00 0.00 54 1011.9
20260504195705 27 30 12.9 29.0 0.00 0.00 0.00 55 1011.8
20260504195626 27 33 12.9 29.0 0.00 0.00 0.00 55 1011.7
20260504195505 27 38 12.9 24.1 0.00 0.00 0.00 55 1011.7
20260504195404 27 37 12.9 24.1 0.00 0.00 0.00 55 1011.8
20260504195305 27 38 12.9 24.1 0.00 0.00 0.00 54 1011.8
20260504195204 27 42 12.9 25.7 0.00 0.00 0.00 55 1012.0
20260504195105 27 44 12.9 25.7 0.00 0.00 0.00 55 1012.0
20260504195005 27 48 14.5 27.4 0.00 0.00 0.00 55 1012.0
20260504194905 27 49 14.5 27.4 0.00 0.00 0.00 55 1011.9
20260504194804 27 49 14.5 27.4 0.00 0.00 0.00 55 1011.9
20260504194726 27 49 16.1 27.4 0.00 0.00 0.00 55 1011.9
20260504194605 27 47 16.1 27.4 0.00 0.00 0.00 55 1011.9
20260504194504 27 47 16.1 29.0 0.00 0.00 0.00 55 1011.9
20260504194405 27 47 17.7 29.0 0.00 0.00 0.00 55 1012.0
20260504194305 27 47 17.7 29.0 0.00 0.00 0.00 54 1012.0
20260504194205 27 45 17.7 29.0 0.00 0.00 0.00 55 1012.0
20260504194105 27 44 17.7 32.2 0.00 0.00 0.00 55 1012.0
20260504194004 27 43 17.7 32.2 0.00 0.00 0.00 55 1012.0
20260504193905 27 41 17.7 32.2 0.00 0.00 0.00 55 1012.0
20260504193805 27 41 17.7 32.2 0.00 0.00 0.00 55 1011.9
20260504193726 27 41 17.7 32.2 0.00 0.00 0.00 55 1012.0
20260504193626 27 42 16.1 32.2 0.00 0.00 0.00 55 1012.0
20260504193505 27 41 16.1 32.2 0.00 0.00 0.00 54 1012.1
20260504193404 27 42 16.1 32.2 0.00 0.00 0.00 55 1012.1
20260504193305 27 44 14.5 32.2 0.00 0.00 0.00 55 1012.1
20260504193205 27 44 14.5 32.2 0.00 0.00 0.00 55 1012.1
20260504193126 27 44 14.5 27.4 0.00 0.00 0.00 55 1012.2
20260504193004 27 43 14.5 27.4 0.00 0.00 0.00 55 1012.3
20260504192905 26 43 16.1 30.6 0.00 0.00 0.00 55 1012.3
20260504192804 26 42 14.5 30.6 0.00 0.00 0.00 55 1012.2
20260504192704 26 42 16.1 30.6 0.00 0.00 0.00 55 1012.2
20260504192604 26 43 14.5 30.6 0.00 0.00 0.00 55 1012.3
20260504192504 26 41 14.5 30.6 0.00 0.00 0.00 55 1012.2
20260504192405 26 41 14.5 30.6 0.00 0.00 0.00 55 1012.2
20260504192305 26 40 14.5 30.6 0.00 0.00 0.00 55 1012.2
20260504192226 26 40 14.5 30.6 0.00 0.00 0.00 55 1012.2
20260504192105 26 38 14.5 30.6 0.00 0.00 0.00 55 1012.3
20260504192005 26 34 14.5 30.6 0.00 0.00 0.00 55 1012.3
20260504191904 26 35 14.5 30.6 0.00 0.00 0.00 55 1012.3
20260504191804 26 36 14.5 27.4 0.00 0.00 0.00 55 1012.3
20260504191704 26 35 14.5 27.4 0.00 0.00 0.00 55 1012.4
20260504191605 26 33 14.5 27.4 0.00 0.00 0.00 55 1012.4
20260504191505 26 34 16.1 27.4 0.00 0.00 0.00 55 1012.4
20260504191404 26 34 16.1 27.4 0.00 0.00 0.00 55 1012.4
20260504191305 26 33 16.1 27.4 0.00 0.00 0.00 55 1012.5
20260504191204 26 33 16.1 27.4 0.00 0.00 0.00 55 1012.5
20260504191105 26 35 16.1 29.0 0.00 0.00 0.00 56 1012.4
20260504191004 26 39 16.1 29.0 0.00 0.00 0.00 55 1012.5
20260504190904 26 39 16.1 29.0 0.00 0.00 0.00 55 1012.5
20260504190826 26 38 16.1 29.0 0.00 0.00 0.00 55 1012.6
20260504190725 26 39 16.1 29.0 0.00 0.00 0.00 55 1012.5
20260504190605 26 39 16.1 29.0 0.00 0.00 0.00 55 1012.6
20260504190505 26 38 16.1 29.0 0.00 0.00 0.00 55 1012.6
20260504190405 26 36 16.1 29.0 0.00 0.00 0.00 56 1012.7
20260504190304 26 36 16.1 29.0 0.00 0.00 0.00 56 1012.5
20260504190226 26 35 16.1 29.0 0.00 0.00 0.00 55 1012.5
20260504190105 26 33 14.5 27.4 0.00 0.00 0.00 55 1012.5
20260504190005 26 31 14.5 27.4 0.00 0.00 0.00 55 1012.4
20260504185904 26 31 14.5 27.4 0.00 0.00 0.00 55 1012.5
20260504185805 26 32 14.5 27.4 0.00 0.00 0.00 55 1012.5
20260504185705 26 32 14.5 27.4 0.00 0.00 0.00 54 1012.6
20260504185604 26 32 14.5 32.2 0.00 0.00 0.00 54 1012.7
20260504185526 26 32 12.9 32.2 0.00 0.00 0.00 55 1012.6
20260504185426 26 31 12.9 32.2 0.00 0.00 0.00 55 1012.5
20260504185305 26 33 12.9 32.2 0.00 0.00 0.00 55 1012.6
20260504185205 26 33 12.9 32.2 0.00 0.00 0.00 55 1012.6
20260504185125 26 35 12.9 32.2 0.00 0.00 0.00 55 1012.7
20260504185025 26 35 12.9 32.2 0.00 0.00 0.00 55 1012.7
20260504184905 26 31 12.9 32.2 0.00 0.00 0.00 55 1012.6
20260504184805 26 30 12.9 32.2 0.00 0.00 0.00 55 1012.6
20260504184705 26 30 12.9 32.2 0.00 0.00 0.00 55 1012.6
20260504184605 26 31 11.3 24.1 0.00 0.00 0.00 55 1012.6
20260504184505 26 32 12.9 24.1 0.00 0.00 0.00 55 1012.6
20260504184426 26 35 12.9 24.1 0.00 0.00 0.00 55 1012.7
20260504184304 26 35 12.9 24.1 0.00 0.00 0.00 55 1012.7
20260504184226 26 35 12.9 24.1 0.00 0.00 0.00 56 1012.7
20260504184104 25 35 12.9 25.7 0.00 0.00 0.00 55 1012.8
20260504184004 25 36 14.5 25.7 0.00 0.00 0.00 56 1012.7
20260504183905 25 38 14.5 29.0 0.00 0.00 0.00 56 1012.7
20260504183805 25 38 14.5 29.0 0.00 0.00 0.00 55 1012.7
20260504183726 25 38 12.9 29.0 0.00 0.00 0.00 56 1012.8
20260504183604 25 37 14.5 29.0 0.00 0.00 0.00 56 1012.9
20260504183526 25 37 14.5 29.0 0.00 0.00 0.00 56 1012.9
20260504183404 25 34 14.5 29.0 0.00 0.00 0.00 55 1012.9
20260504183305 25 32 14.5 29.0 0.00 0.00 0.00 56 1013.0
20260504183205 25 30 14.5 29.0 0.00 0.00 0.00 55 1013.1
20260504183126 25 29 12.9 29.0 0.00 0.00 0.00 55 1013.0
20260504183004 25 29 12.9 29.0 0.00 0.00 0.00 55 1013.1
20260504182905 25 26 12.9 25.7 0.00 0.00 0.00 55 1013.1
20260504182826 25 27 12.9 25.7 0.00 0.00 0.00 55 1013.2
20260504182705 25 28 14.5 25.7 0.00 0.00 0.00 55 1013.1
20260504182604 25 30 12.9 25.7 0.00 0.00 0.00 55 1013.2
20260504182526 25 31 12.9 25.7 0.00 0.00 0.00 55 1013.2
20260504182404 25 33 12.9 25.7 0.00 0.00 0.00 55 1013.2
20260504182326 25 34 12.9 25.7 0.00 0.00 0.00 55 1013.2
20260504182225 25 37 12.9 25.7 0.00 0.00 0.00 55 1013.2
20260504182105 25 40 14.5 25.7 0.00 0.00 0.00 56 1013.3
20260504182005 25 40 14.5 25.7 0.00 0.00 0.00 56 1013.3
20260504181905 25 43 14.5 25.7 0.00 0.00 0.00 56 1013.3
20260504181805 25 44 14.5 25.7 0.00 0.00 0.00 56 1013.3
20260504181704 25 42 14.5 25.7 0.00 0.00 0.00 56 1013.3
20260504181605 25 41 14.5 25.7 0.00 0.00 0.00 56 1013.3
20260504181505 25 38 14.5 25.7 0.00 0.00 0.00 55 1013.3
20260504181404 25 40 14.5 25.7 0.00 0.00 0.00 55 1013.2
20260504181304 25 45 14.5 25.7 0.00 0.00 0.00 55 1013.2
20260504181205 25 47 14.5 25.7 0.00 0.00 0.00 55 1013.2
20260504160404 22 37 16.1 33.8 0.00 0.00 0.00 52 1014.8
20260504160304 22 36 16.1 33.8 0.00 0.00 0.00 52 1014.9
20260504160204 22 35 16.1 33.8 0.00 0.00 0.00 52 1014.9
20260504160104 22 34 16.1 33.8 0.00 0.00 0.00 52 1015.0
20260504151125 21 31 16.1 29.0 0.00 0.00 0.00 51 1015.0
20260504151004 21 32 16.1 30.6 0.00 0.00 0.00 51 1015.1
20260504150904 21 33 16.1 30.6 0.00 0.00 0.00 51 1015.2
20260504150804 21 35 16.1 30.6 0.00 0.00 0.00 51 1015.2
20260504150704 21 35 16.1 30.6 0.00 0.00 0.00 50 1015.2
20260504150604 21 36 16.1 30.6 0.00 0.00 0.00 50 1015.1
20260504150504 21 35 16.1 30.6 0.00 0.00 0.00 50 1015.1
20260504150404 21 34 14.5 30.6 0.00 0.00 0.00 51 1015.1
20260504150304 21 33 14.5 30.6 0.00 0.00 0.00 50 1015.1
20260504150204 21 32 14.5 30.6 0.00 0.00 0.00 50 1015.1
20260504150104 21 31 12.9 30.6 0.00 0.00 0.00 50 1015.1
20260504141304 20 23 8.0 17.7 0.00 0.00 0.00 45 1015.3
20260504141204 20 23 8.0 17.7 0.00 0.00 0.00 45 1015.3
20260504141104 20 20 8.0 17.7 0.00 0.00 0.00 44 1015.3
20260504141004 20 22 8.0 14.5 0.00 0.00 0.00 44 1015.4
20260504140904 20 19 6.4 12.9 0.00 0.00 0.00 43 1015.3
20260504140804 19 24 6.4 12.9 0.00 0.00 0.00 43 1015.4
20260504140704 19 25 8.0 12.9 0.00 0.00 0.00 43 1015.4
20260504140604 19 26 8.0 16.1 0.00 0.00 0.00 42 1015.3
20260504140525 19 25 8.0 16.1 0.00 0.00 0.00 42 1015.4
20260504140425 19 25 8.0 17.7 0.00 0.00 0.00 42 1015.5
20260504140304 19 25 8.0 17.7 0.00 0.00 0.00 42 1015.4
20260504140225 19 20 8.0 17.7 0.00 0.00 0.00 41 1015.4
20260504140125 19 22 8.0 17.7 0.00 0.00 0.00 40 1015.4
20260504130804 16 35 4.8 11.3 0.00 0.00 0.00 6 1015.3
20260504130705 16 33 4.8 11.3 0.00 0.00 0.00 7 1015.3
20260504130604 16 32 4.8 11.3 0.00 0.00 0.00 7 1015.3
20260504130525 16 30 4.8 12.9 0.00 0.00 0.00 7 1015.3
20260504130404 16 33 4.8 12.9 0.00 0.00 0.00 7 1015.3
20260504130304 16 34 4.8 14.5 0.00 0.00 0.00 7 1015.3
20260504130225 16 32 4.8 14.5 0.00 0.00 0.00 7 1015.3
20260504130104 16 29 4.8 14.5 0.00 0.00 0.00 7 1015.3
20260504120304 15 34 4.8 9.7 0.00 0.00 0.00 1 1014.5
20260504120204 15 34 4.8 9.7 0.00 0.00 0.00 1 1014.5
20260504120104 15 34 4.8 9.7 0.00 0.00 0.00 1 1014.5
20260504110704 16 51 4.8 11.3 0.00 0.00 0.00 1 1015.0
20260504110604 16 50 4.8 11.3 0.00 0.00 0.00 1 1015.1
20260504110504 16 50 4.8 11.3 0.00 0.00 0.00 1 1015.0
20260504110404 16 49 4.8 11.3 0.00 0.00 0.00 1 1015.0
20260504110304 16 48 4.8 11.3 0.00 0.00 0.00 1 1015.0
20260504110204 16 47 4.8 11.3 0.00 0.00 0.00 1 1015.0
20260504110104 16 46 4.8 11.3 0.00 0.00 0.00 1 1015.0
20260504100604 16 45 1.6 11.3 0.00 0.00 0.00 8 1015.2
20260504100525 16 45 1.6 11.3 0.00 0.00 0.00 8 1015.1
20260504100425 16 44 3.2 11.3 0.00 0.00 0.00 9 1015.2
20260504100304 16 42 3.2 11.3 0.00 0.00 0.00 10 1015.2
20260504100204 16 40 3.2 11.3 0.00 0.00 0.00 10 1015.2
20260504100104 16 34 4.8 11.3 0.00 0.00 0.00 10 1015.2
20260504090125 16 32 4.8 9.7 0.00 0.00 0.00 19 1015.2
20260504082004 17 42 3.2 8.0 0.00 0.00 0.00 32 1015.5
20260504081904 17 43 3.2 8.0 0.00 0.00 0.00 32 1015.5
20260504081825 17 42 3.2 8.0 0.00 0.00 0.00 33 1015.5
20260504081704 17 39 3.2 8.0 0.00 0.00 0.00 33 1015.6
20260504081604 17 35 3.2 8.0 0.00 0.00 0.00 34 1015.5
20260504081504 17 36 3.2 8.0 0.00 0.00 0.00 34 1015.6
20260504081404 17 36 3.2 9.7 0.00 0.00 0.00 35 1015.7
20260504081304 17 37 3.2 9.7 0.00 0.00 0.00 35 1015.6
20260504081204 17 36 3.2 9.7 0.00 0.00 0.00 36 1015.6
20260504081104 17 36 3.2 9.7 0.00 0.00 0.00 36 1015.6
20260504081004 17 35 3.2 9.7 0.00 0.00 0.00 37 1015.5
20260504080904 17 35 3.2 9.7 0.00 0.00 0.00 38 1015.6
20260504080804 17 35 3.2 9.7 0.00 0.00 0.00 38 1015.7
20260504080704 17 35 3.2 9.7 0.00 0.00 0.00 39 1015.6
20260504080604 17 35 3.2 9.7 0.00 0.00 0.00 39 1015.7
20260504080504 17 35 3.2 9.7 0.00 0.00 0.00 40 1015.7
20260504080404 17 35 3.2 9.7 0.00 0.00 0.00 40 1015.8
20260504080304 17 35 3.2 9.7 0.00 0.00 0.00 41 1015.7
20260504080204 17 36 3.2 9.7 0.00 0.00 0.00 41 1015.7
20260504080125 17 36 3.2 9.7 0.00 0.00 0.00 41 1015.7
20260504070304 17 39 4.8 11.3 0.00 0.00 0.00 47 1016.8
20260504070204 17 36 4.8 11.3 0.00 0.00 0.00 47 1016.8
20260504070104 17 31 6.4 16.1 0.00 0.00 0.00 47 1016.8
20260504060204 17 40 3.2 11.3 0.00 0.00 0.00 53 1017.4
20260504060104 17 42 3.2 11.3 0.00 0.00 0.00 53 1017.5